Weather History for KFWZ - January, 2014

Change the Weather History Date:

Saturday, January 25, 2014

  Actual Average (KLND) Record (KLND)
Temperature  
Mean Temperature 36 °F 22 °F  
Max Temperature 41 °F 33 °F 57 °F (1951)
Min Temperature 32 °F 11 °F -31 °F (1949)
Degree Days  
Heating Degree Days 28 43  
Month to date heating degree days 1084  
Since 1 July heating degree days 4330  
Cooling Degree Days 0 0  
Month to date cooling degree days 0  
Year to date cooling degree days 0  
Moisture  
Dew Point 20 °F    
Average Humidity 54    
Maximum Humidity 64    
Minimum Humidity 33    
Precipitation  
Precipitation 0.00 in 0.01 in 0.29 in (1979)
Month to date precipitation 0.33  
Year to date precipitation 0.33  
Snow  
Snow 0.00 in 0.20 in - ()
Month to date snowfall 6.1  
Since 1 July snowfall 41.8  
Snow Depth -    
Sea Level Pressure  
Sea Level Pressure 30.10 in    
Wind  
Wind Speed 5 mph (WNW)    
Max Wind Speed 24 mph    
Max Gust Speed 29 mph    
Visibility 10 miles    
Events      
T = Trace of Precipitation, MM = Missing Value Source: NWS Daily Summary

Daily Weather History Graph

Daily Weather History Graph

Search for Another Location

Airport or City:

Trip Planner

Search our weather history database for the weather conditions in past years. The results will help you decide how hot, cold, wet, or windy it might be!

Date:

Astronomy

Jan. 25, 2014 Rise Set
Actual Time 7:35 AM MST 5:19 PM MST
Civil Twilight 7:05 AM MST 5:50 PM MST
Nautical Twilight 6:31 AM MST 6:24 PM MST
Astronomical Twilight 5:57 AM MST 6:57 PM MST
Moon 2:10 AM MST 12:22 PM MST
Length of Visible Light 10h 45m
Length of Day
9h 44m
Waning Crescent, 33% of the Moon is Illuminated
Jan 25
Waning Crescent
Jan 30
New
Feb 6
First Quarter
Feb 14
Full
Feb 22
Last Quarter

Hourly Weather History & Observations

Time (MST) Temp. Windchill Dew Point Humidity Pressure Visibility Wind Dir Wind Speed Gust Speed Precip Events Conditions
12:15 AM 35.6 °F 30.7 °F 21.2 °F 56% 30.22 in 10.0 mi NE 5.8 mph - N/A   Clear
12:35 AM 33.8 °F 27.7 °F 19.4 °F 56% 30.21 in 10.0 mi NNE 6.9 mph - N/A   Clear
12:55 AM 33.8 °F 27.0 °F 19.4 °F 56% 30.22 in 10.0 mi NNE 8.1 mph - N/A   Clear
1:15 AM 32.0 °F 26.4 °F 19.4 °F 60% 30.23 in 10.0 mi East 5.8 mph - N/A   Clear
1:35 AM 32.0 °F 26.4 °F 21.2 °F 64% 30.23 in 10.0 mi East 5.8 mph - N/A   Clear
1:55 AM 32.0 °F 26.4 °F 19.4 °F 60% 30.23 in 10.0 mi NE 5.8 mph - N/A   Clear
2:15 AM 32.0 °F 28.7 °F 21.2 °F 64% 30.23 in 10.0 mi NNW 3.5 mph - N/A   Clear
2:35 AM 32.0 °F - 21.2 °F 64% 30.23 in 10.0 mi Calm Calm - N/A   Clear
2:55 AM 32.0 °F 26.4 °F 19.4 °F 60% 30.23 in 10.0 mi WSW 5.8 mph - N/A   Clear
3:15 AM 32.0 °F 28.7 °F 19.4 °F 60% 30.23 in 10.0 mi WSW 3.5 mph - N/A   Clear
3:35 AM 32.0 °F 28.7 °F 21.2 °F 64% 30.21 in 10.0 mi South 3.5 mph - N/A   Clear
3:55 AM 32.0 °F - 21.2 °F 64% 30.21 in 10.0 mi Calm Calm - N/A   Clear
4:15 AM 32.0 °F - 21.2 °F 64% 30.21 in 10.0 mi Calm Calm - N/A   Clear
4:55 AM 32.0 °F 28.7 °F 19.4 °F 60% 30.19 in 10.0 mi SW 3.5 mph - N/A   Clear
5:15 AM 32.0 °F 27.5 °F 21.2 °F 64% 30.19 in 10.0 mi WSW 4.6 mph - N/A   Clear
5:35 AM 32.0 °F 27.5 °F 21.2 °F 64% 30.18 in 10.0 mi WSW 4.6 mph - N/A   Clear
5:55 AM 32.0 °F 28.7 °F 21.2 °F 64% 30.18 in 10.0 mi WSW 3.5 mph - N/A   Clear
6:15 AM 32.0 °F 28.7 °F 21.2 °F 64% 30.17 in 10.0 mi SW 3.5 mph - N/A   Clear
6:35 AM 32.0 °F 28.7 °F 21.2 °F 64% 30.16 in 10.0 mi WSW 3.5 mph - N/A   Clear
6:55 AM 32.0 °F - 21.2 °F 64% 30.17 in 10.0 mi Calm Calm - N/A   Clear
7:15 AM 32.0 °F - 21.2 °F 64% 30.16 in 10.0 mi Calm Calm - N/A   Clear
7:35 AM 32.0 °F - 21.2 °F 64% 30.16 in 10.0 mi Calm Calm - N/A   Clear
7:55 AM 32.0 °F - 21.2 °F 64% 30.16 in 10.0 mi Calm Calm - N/A   Clear
8:15 AM 32.0 °F - 21.2 °F 64% 30.15 in 10.0 mi Calm Calm - N/A   Clear
8:35 AM 32.0 °F - 21.2 °F 64% 30.14 in 10.0 mi Calm Calm - N/A   Clear
8:55 AM 33.8 °F 30.8 °F 21.2 °F 60% 30.14 in 10.0 mi WNW 3.5 mph - N/A   Clear
9:15 AM 37.4 °F 34.9 °F 21.2 °F 52% 30.14 in 10.0 mi WSW 3.5 mph - N/A   Clear
9:35 AM 35.6 °F 32.8 °F 21.2 °F 56% 30.14 in 10.0 mi SW 3.5 mph - N/A   Clear
9:55 AM 37.4 °F 34.9 °F 21.2 °F 52% 30.14 in 10.0 mi SW 3.5 mph - N/A   Clear
10:15 AM 37.4 °F - 21.2 °F 52% 30.14 in 10.0 mi Calm Calm - N/A   Clear
10:35 AM 39.2 °F - 23.0 °F 52% 30.13 in 10.0 mi Calm Calm - N/A   Clear
10:55 AM 41.0 °F - 23.0 °F 49% 30.13 in 10.0 mi Calm Calm - N/A   Clear
11:15 AM 41.0 °F - 23.0 °F 49% 30.12 in 10.0 mi Calm Calm - N/A   Clear
11:35 AM 41.0 °F - 23.0 °F 49% 30.10 in 10.0 mi Calm Calm - N/A   Clear
11:55 AM 41.0 °F - 23.0 °F 49% 30.09 in 10.0 mi Calm Calm - N/A   Clear
12:15 PM 39.2 °F 35.0 °F 21.2 °F 49% 30.09 in 10.0 mi WSW 5.8 mph - N/A   Clear
12:35 PM 39.2 °F 33.6 °F 21.2 °F 49% 30.07 in 10.0 mi WSW 8.1 mph - N/A   Clear
12:55 PM 41.0 °F 35.8 °F 21.2 °F 45% 30.06 in 10.0 mi WSW 8.1 mph - N/A   Clear
1:15 PM 41.0 °F 35.8 °F 21.2 °F 45% 30.05 in 10.0 mi WSW 8.1 mph - N/A   Clear
1:35 PM 41.0 °F 35.8 °F 21.2 °F 45% 30.03 in 10.0 mi WSW 8.1 mph - N/A   Clear
1:55 PM 41.0 °F 35.8 °F 21.2 °F 45% 30.03 in 10.0 mi SW 8.1 mph - N/A   Clear
2:15 PM 39.2 °F 33.6 °F 21.2 °F 49% 30.02 in 10.0 mi SW 8.1 mph - N/A   Clear
2:35 PM 41.0 °F 35.8 °F 21.2 °F 45% 30.02 in 10.0 mi WSW 8.1 mph - N/A   Clear
2:55 PM 41.0 °F 36.4 °F 21.2 °F 45% 30.02 in 10.0 mi WSW 6.9 mph - N/A   Clear
3:15 PM 41.0 °F 36.4 °F 21.2 °F 45% 30.02 in 10.0 mi WSW 6.9 mph - N/A   Clear
3:35 PM 41.0 °F 35.8 °F 23.0 °F 49% 30.02 in 10.0 mi WSW 8.1 mph - N/A   Clear
3:55 PM 41.0 °F 37.1 °F 21.2 °F 45% 30.01 in 10.0 mi WSW 5.8 mph - N/A   Clear
4:15 PM 39.2 °F 34.2 °F 21.2 °F 49% 30.01 in 10.0 mi WSW 6.9 mph - N/A   Clear
4:35 PM 41.0 °F - 19.4 °F 42% 30.01 in 10.0 mi Calm Calm - N/A   Clear
4:55 PM 41.0 °F 39.0 °F 19.4 °F 42% 30.00 in 10.0 mi WSW 3.5 mph - N/A   Clear
5:15 PM 41.0 °F - 19.4 °F 42% 30.00 in 10.0 mi Calm Calm - N/A   Clear
5:35 PM 41.0 °F 39.0 °F 19.4 °F 42% 30.00 in 10.0 mi NNW 3.5 mph - N/A   Clear
5:55 PM 37.4 °F 31.4 °F 21.2 °F 52% 30.00 in 10.0 mi NNW 8.1 mph - N/A   Clear
6:15 PM 37.4 °F 32.8 °F 19.4 °F 48% 30.00 in 10.0 mi NNW 5.8 mph - N/A   Clear
6:35 PM 37.4 °F 32.1 °F 17.6 °F 45% 30.00 in 10.0 mi NW 6.9 mph - N/A   Clear
6:55 PM 37.4 °F 31.4 °F 17.6 °F 45% 30.00 in 10.0 mi NW 8.1 mph - N/A   Clear
7:15 PM 41.0 °F 37.1 °F 14.0 °F 33% 30.00 in 10.0 mi NW 5.8 mph - N/A   Clear
8:15 PM 35.6 °F 29.9 °F 14.0 °F 41% 30.01 in 10.0 mi NNW 6.9 mph - N/A   Clear
8:35 PM 33.8 °F 28.6 °F 15.8 °F 48% 30.02 in 10.0 mi NNW 5.8 mph - N/A   Clear
8:55 PM 32.0 °F 26.4 °F 17.6 °F 55% 30.03 in 10.0 mi North 5.8 mph - N/A   Clear
9:15 PM 32.0 °F 24.8 °F 17.6 °F 55% 30.03 in 10.0 mi North 8.1 mph - N/A   Clear
9:35 PM 32.0 °F 21.2 °F 17.6 °F 55% 30.02 in 10.0 mi North 16.1 mph - N/A   Clear
9:55 PM 32.0 °F 20.8 °F 17.6 °F 55% 30.02 in 10.0 mi North 17.3 mph - N/A   Clear
10:15 PM 32.0 °F 20.1 °F 17.6 °F 55% 30.02 in 10.0 mi North 19.6 mph - N/A   Clear
10:35 PM 32.0 °F 18.9 °F 17.6 °F 55% 30.01 in 10.0 mi North 24.2 mph 28.8 mph N/A   Clear
10:55 PM 32.0 °F 19.2 °F 17.6 °F 55% 30.00 in 10.0 mi North 23.0 mph - N/A   Clear
11:15 PM 32.0 °F 19.5 °F 17.6 °F 55% 30.00 in 10.0 mi North 21.9 mph 26.5 mph N/A   Clear
11:35 PM 32.0 °F 20.5 °F 17.6 °F 55% 30.00 in 10.0 mi NNW 18.4 mph - N/A   Clear
11:55 PM 32.0 °F 22.1 °F 17.6 °F 55% 30.00 in 10.0 mi NNW 13.8 mph - N/A   Clear